period_start,C,m1,H,J0,J1,J2,J3,J4,J5,JA,JB,JC,JD,JJ,JK,JN,#
2017-06-30 00:01:57,0.01,0.16,0.00,25.64,29.42,31.79,13.55,44.70,999.66,2023.98,3475.97,3035.02,3477.01,600.02,581.00,12.00,0000 0000 0000 0000 000000
2017-06-30 00:06:58,0.01,0.16,0.00,25.67,29.44,31.81,13.59,44.73,999.54,2023.95,3475.32,3034.96,3476.80,600.23,581.06,12.05,0000 0000 0000 0000 000000
2017-06-30 00:11:59,0.02,0.16,0.00,25.70,29.46,31.83,13.49,44.70,999.53,2023.83,3474.94,3034.25,3476.05,599.79,580.50,12.10,0000 0000 0000 0000 000000
2017-06-30 00:17:01,0.01,0.17,0.00,25.73,29.48,31.85,13.57,44.73,999.52,2023.71,3474.08,3034.00,3475.84,600.10,580.79,12.15,0000 0000 0000 0000 000000
2017-06-30 00:22:02,0.00,0.17,0.00,25.78,29.50,31.88,13.53,44.88,999.21,2023.39,3473.37,3033.61,3475.07,600.18,580.52,12.20,0000 0000 0000 0000 000000
2017-06-30 00:27:04,0.01,0.17,0.00,25.81,29.52,31.90,13.49,44.77,999.40,2023.19,3472.96,3033.04,3474.78,599.94,580.38,12.25,0000 0000 0000 0000 000000
2017-06-30 00:32:05,0.02,0.17,0.00,25.83,29.55,31.92,13.56,44.75,999.35,2023.17,3472.17,3033.00,3474.08,600.15,580.51,12.30,0000 0000 0000 0000 000000
2017-06-30 00:37:06,0.02,0.17,0.00,25.86,29.57,31.93,13.55,44.67,999.19,2023.16,3471.81,3032.74,3473.95,600.06,580.38,12.35,0000 0000 0000 0000 000000
2017-06-30 00:42:08,0.05,0.17,0.00,25.89,29.59,31.96,13.53,44.95,999.06,2023.14,3470.80,3032.03,3473.22,600.08,580.13,12.40,0000 0000 0000 0000 000000
2017-06-30 00:47:09,0.02,0.17,0.00,25.94,29.61,31.98,13.60,44.99,999.04,2023.12,3470.01,3031.74,3472.82,600.18,580.17,12.45,0000 0000 0000 0000 000000
2017-06-30 00:52:10,0.03,0.17,0.00,25.96,29.63,32.00,13.48,44.93,999.04,2023.03,3469.18,3031.06,3472.07,599.93,579.88,12.50,0000 0000 0000 0000 000000
2017-06-30 00:57:12,0.02,0.17,0.00,25.99,29.66,32.01,13.49,44.95,999.04,2023.01,3468.59,3030.94,3471.71,600.00,579.88,12.55,0000 0000 0000 0000 000000
2017-06-30 01:02:13,0.03,0.18,0.00,26.01,29.68,32.05,13.44,44.92,999.04,2023.00,3467.99,3030.22,3471.03,599.82,579.65,12.60,0000 0000 0000 0000 000000
2017-06-30 01:07:14,0.02,0.18,0.00,26.05,29.70,32.07,13.50,44.86,999.04,2023.00,3467.25,3030.01,3470.66,599.95,579.66,12.65,0000 0000 0000 0000 000000
2017-06-30 01:12:16,0.04,0.18,0.00,26.08,29.72,32.09,13.54,44.82,999.04,2022.99,3466.29,3029.41,3469.80,599.87,579.47,12.70,0000 0000 0000 0000 000000
2017-06-30 01:17:17,0.05,0.18,0.00,26.10,29.75,32.12,13.52,44.72,999.04,2022.96,3465.06,3028.52,3468.70,599.78,579.46,12.75,0000 0000 0000 0000 000000
2017-06-30 01:22:18,0.08,0.19,0.00,26.11,29.77,32.14,13.45,44.67,999.05,2022.93,3463.01,3027.23,3467.22,599.71,579.40,12.80,0000 0000 0000 0000 000000
2017-06-30 01:27:19,0.04,0.19,0.00,26.15,29.79,32.16,13.50,44.81,999.05,2022.88,3461.79,3026.24,3466.14,600.11,579.64,12.85,0000 0000 0000 0000 000000
2017-06-30 01:32:20,0.03,0.19,0.00,26.18,29.81,32.19,13.52,44.83,999.04,2022.74,3460.79,3025.82,3465.21,599.86,579.37,12.90,0000 0000 0000 0000 000000
2017-06-30 01:37:22,0.03,0.19,0.00,26.21,29.83,32.21,13.48,44.85,999.06,2022.79,3460.03,3025.14,3464.99,599.61,579.16,12.95,0000 0000 0000 0000 000000
2017-06-30 01:42:23,0.01,0.19,0.00,26.24,29.86,32.24,13.53,44.80,999.05,2022.61,3459.50,3025.00,3464.50,600.24,579.63,13.00,0000 0000 0000 0000 000000
2017-06-30 01:47:24,-0.02,0.19,0.00,26.27,29.88,32.26,13.47,44.93,999.05,2022.25,3458.97,3024.84,3464.02,599.67,578.93,13.05,0000 0000 0000 0000 000000
2017-06-30 01:52:25,0.02,0.19,0.00,26.29,29.90,32.28,13.54,44.98,999.06,2022.08,3458.23,3024.16,3463.71,600.00,579.31,13.10,0000 0000 0000 0000 000000
2017-06-30 01:57:27,0.01,0.19,0.00,26.32,29.92,32.31,13.56,44.92,999.08,2022.04,3457.76,3024.00,3463.04,600.13,579.38,13.15,0000 0000 0000 0000 000000
2017-06-30 02:02:28,0.00,0.19,0.00,26.35,29.95,32.33,13.49,44.89,999.07,2022.01,3457.04,3023.93,3462.91,599.97,579.21,13.20,0000 0000 0000 0000 000000
2017-06-30 02:07:30,0.04,0.20,0.00,26.38,29.97,32.36,13.49,44.86,999.05,2022.00,3456.53,3023.22,3462.16,600.02,579.10,13.25,0000 0000 0000 0000 000000
2017-06-30 02:12:31,0.01,0.20,0.00,26.41,30.00,32.38,13.52,44.87,999.05,2022.00,3455.98,3023.00,3461.97,600.00,579.09,13.30,0000 0000 0000 0000 000000
2017-06-30 02:17:32,0.04,0.20,0.00,26.44,30.01,32.40,13.56,44.88,999.05,2022.00,3455.18,3022.66,3461.17,600.28,579.28,13.35,0000 0000 0000 0000 000000
2017-06-30 02:22:33,0.01,0.20,0.00,26.47,30.04,32.43,13.49,44.78,999.04,2021.98,3454.70,3022.04,3460.94,599.98,578.91,13.40,0000 0000 0000 0000 000000
2017-06-30 02:27:35,0.02,0.20,0.00,26.49,30.06,32.45,13.55,44.83,999.06,2021.94,3454.01,3021.97,3460.14,600.08,579.06,13.45,0000 0000 0000 0000 000000
2017-06-30 02:32:36,0.03,0.20,0.00,26.52,30.08,32.48,13.52,44.83,999.06,2021.85,3453.30,3021.33,3459.95,600.05,578.91,13.50,0000 0000 0000 0000 000000
2017-06-30 02:37:37,-0.03,0.20,0.00,26.55,30.11,32.49,13.43,45.02,999.05,2021.38,3452.85,3021.00,3459.18,599.61,578.45,13.55,0000 0000 0000 0000 000000
2017-06-30 02:42:39,-0.00,0.20,0.00,26.59,30.13,32.52,13.44,44.95,999.18,2021.14,3452.08,3020.86,3458.97,599.97,578.78,13.60,0000 0000 0000 0000 000000
2017-06-30 02:47:40,0.03,0.20,0.00,26.62,30.16,32.54,13.52,44.92,999.49,2021.03,3451.58,3020.15,3458.31,599.98,579.01,13.65,0000 0000 0000 0000 000000
2017-06-30 02:52:41,0.00,0.20,0.00,26.65,30.18,32.58,13.49,44.79,999.52,2021.00,3451.00,3020.00,3457.99,600.21,579.08,13.70,0000 0000 0000 0000 000000
2017-06-30 02:57:42,0.03,0.20,0.00,26.67,30.21,32.60,13.54,44.78,999.53,2021.00,3450.33,3019.74,3457.52,600.17,579.00,13.75,0000 0000 0000 0000 000000
2017-06-30 03:02:44,0.02,0.21,0.00,26.70,30.23,32.63,13.44,44.92,999.53,2021.00,3449.83,3019.10,3457.01,600.16,578.97,13.80,0000 0000 0000 0000 000000
2017-06-30 03:07:45,0.01,0.21,0.00,26.72,30.25,32.65,13.45,44.73,999.53,2020.99,3449.07,3019.00,3456.73,599.75,578.63,13.85,0000 0000 0000 0000 000000
2017-06-30 03:12:46,0.03,0.21,0.00,26.73,30.27,32.68,13.46,44.77,999.53,2020.97,3448.56,3018.62,3456.05,599.85,578.71,13.90,0000 0000 0000 0000 000000
2017-06-30 03:17:47,0.02,0.21,0.00,26.75,30.30,32.72,13.52,44.66,999.53,2020.95,3447.78,3018.03,3455.81,600.37,578.95,13.95,0000 0000 0000 0000 000000
2017-06-30 03:22:48,0.02,0.21,0.00,26.77,30.32,32.74,13.51,44.71,999.53,2020.94,3447.01,3017.89,3455.08,600.21,578.88,14.01,0000 0000 0000 0000 000000
2017-06-30 03:27:50,0.01,0.21,0.00,26.79,30.35,32.76,13.48,44.67,999.53,2020.65,3446.15,3017.10,3454.94,600.26,578.94,14.06,0000 0000 0000 0000 000000
2017-06-30 03:32:51,-0.01,0.21,0.00,26.80,30.37,32.78,13.43,44.58,999.53,2020.49,3445.86,3017.00,3454.24,600.11,578.66,14.11,0000 0000 0000 0000 000000
2017-06-30 03:37:52,0.01,0.21,0.00,26.82,30.39,32.81,13.52,44.64,999.53,2020.37,3445.07,3016.89,3453.98,599.89,578.41,14.16,0000 0000 0000 0000 000000
2017-06-30 03:42:53,0.02,0.21,0.00,26.83,30.41,32.84,13.50,44.54,999.53,2020.10,3444.46,3016.14,3453.33,600.22,578.69,14.21,0000 0000 0000 0000 000000
2017-06-30 03:47:54,0.00,0.21,0.00,26.87,30.42,32.86,13.46,44.55,999.53,2020.03,3443.97,3016.00,3453.00,600.22,578.64,14.26,0000 0000 0000 0000 000000
2017-06-30 03:52:55,0.03,0.21,0.00,26.87,30.45,32.88,13.54,44.61,999.53,2020.00,3443.22,3015.77,3452.40,600.39,578.84,14.31,0000 0000 0000 0000 000000
2017-06-30 08:25:16,-3333.30,0.00,0.00,23.11,24.93,23.25,11.91,38.13,998.59,1841.23,3349.30,2901.67,3339.02,535.82,522.75,0.01,0000 0000 0000 0000 000000
2017-06-30 08:30:17,0.00,0.00,0.00,23.21,24.84,24.81,13.42,42.83,999.03,2044.04,3577.95,3101.95,3570.82,600.23,585.50,0.06,0000 0000 0000 0000 000000
2017-06-30 08:35:18,0.01,0.00,0.00,23.38,24.78,25.76,13.49,42.88,999.09,2044.01,3576.25,3101.01,3569.47,600.13,585.14,0.11,0000 0000 0000 0000 000000
2017-06-30 08:40:20,0.03,0.01,0.00,23.54,24.75,26.44,13.48,43.01,999.50,2044.27,3575.55,3100.65,3568.84,599.92,584.83,0.16,0000 0000 0000 0000 000000
2017-06-30 08:45:21,0.06,0.01,0.00,23.61,24.77,26.83,13.55,43.10,999.53,2044.92,3574.41,3100.01,3568.01,600.17,585.04,0.21,0000 0000 0000 0000 000000
2017-06-30 08:50:22,0.05,0.01,0.00,23.80,24.82,27.10,13.45,43.08,999.57,2044.95,3573.49,3099.26,3567.15,600.27,584.80,0.26,0000 0000 0000 0000 000000
2017-06-30 08:55:23,-0.01,0.01,0.00,24.05,24.90,27.35,13.51,43.22,999.96,2044.31,3572.70,3098.59,3566.19,599.91,584.12,0.31,0000 0000 0000 0000 000000
2017-06-30 09:00:24,0.03,0.01,0.00,24.32,25.01,27.74,13.40,43.12,1000.01,2044.03,3571.69,3097.78,3565.08,599.60,583.29,0.36,0000 0000 0000 0000 000000
2017-06-30 09:05:26,0.07,0.02,0.00,24.59,25.15,28.12,13.45,43.14,1000.03,2044.00,3570.13,3096.61,3563.61,599.66,582.85,0.41,0000 0000 0000 0000 000000
2017-06-30 09:10:27,0.02,0.02,0.00,24.87,25.31,28.48,13.44,43.08,1000.04,2043.70,3568.75,3095.52,3562.16,599.83,582.38,0.46,0000 0000 0000 0000 000000
2017-06-30 09:15:28,0.03,0.02,0.00,25.24,25.49,28.80,13.41,42.84,1000.31,2043.03,3567.35,3094.20,3560.63,600.13,582.14,0.51,0000 0000 0000 0000 000000
2017-06-30 09:20:30,-0.02,0.02,0.00,25.50,25.67,29.09,13.43,42.75,1000.50,2042.31,3565.94,3092.99,3559.12,600.20,581.88,0.56,0000 0000 0000 0000 000000
2017-06-30 09:25:31,0.04,0.02,0.00,25.64,25.87,29.38,13.46,42.73,1000.54,2041.79,3564.50,3091.81,3557.58,600.12,581.67,0.61,0000 0000 0000 0000 000000
2017-06-30 09:30:32,0.02,0.02,0.00,25.78,26.07,29.66,13.37,42.59,1000.82,2041.02,3563.05,3090.55,3556.01,599.53,580.87,0.66,0000 0000 0000 0000 000000
2017-06-30 09:35:33,-0.01,0.02,0.00,25.94,26.28,29.92,13.44,42.52,1000.99,2040.23,3561.65,3089.39,3554.49,600.36,581.39,0.71,0000 0000 0000 0000 000000
2017-06-30 09:40:34,0.02,0.03,0.00,26.08,26.48,30.16,13.37,42.42,1001.00,2039.66,3560.08,3088.05,3552.85,599.50,580.33,0.76,0000 0000 0000 0000 000000
2017-06-30 09:45:35,0.03,0.03,0.00,26.22,26.68,30.38,13.49,42.49,1001.02,2038.83,3558.55,3086.73,3551.25,600.34,580.92,0.81,0000 0000 0000 0000 000000
2017-06-30 09:50:37,0.01,0.03,0.00,26.34,26.88,30.58,13.42,42.48,1001.25,2037.99,3556.87,3085.45,3549.60,600.10,580.59,0.86,0000 0000 0000 0000 000000
2017-06-30 09:55:38,-0.01,0.03,0.00,26.47,27.08,30.78,13.41,42.56,1001.48,2037.12,3555.25,3084.05,3547.84,600.03,580.34,0.91,0000 0000 0000 0000 000000
2017-06-30 10:00:39,0.00,0.03,0.00,26.57,27.28,30.96,13.47,42.48,1001.49,2036.36,3553.56,3082.64,3546.10,599.95,580.12,0.96,0000 0000 0000 0000 000000
2017-06-30 10:05:40,0.02,0.03,0.00,26.69,27.47,31.13,13.41,42.47,1001.61,2035.68,3551.87,3081.25,3544.39,600.09,580.10,1.01,0000 0000 0000 0000 000000
2017-06-30 10:10:41,0.01,0.03,0.00,26.79,27.65,31.27,13.39,42.49,1001.92,2034.80,3550.34,3079.99,3542.79,600.09,580.02,1.06,0000 0000 0000 0000 000000
2017-06-30 10:15:43,0.03,0.03,0.00,26.89,27.84,31.38,13.44,42.33,1001.97,2034.00,3548.61,3078.59,3541.10,599.76,579.62,1.11,0000 0000 0000 0000 000000
2017-06-30 10:20:44,0.02,0.03,0.00,27.01,28.01,31.49,13.40,42.27,1001.97,2033.17,3546.59,3076.89,3539.03,600.07,579.62,1.16,0000 0000 0000 0000 000000
2017-06-30 10:25:46,-0.00,0.03,0.00,27.13,28.18,31.67,13.38,42.22,1001.98,2032.32,3544.75,3075.43,3537.25,599.81,579.18,1.21,0000 0000 0000 0000 000000
2017-06-30 10:30:47,0.03,0.03,0.00,27.25,28.35,31.84,13.39,42.16,1001.98,2031.78,3543.38,3074.28,3535.75,599.91,579.09,1.26,0000 0000 0000 0000 000000
2017-06-30 10:35:48,0.00,0.03,0.00,27.38,28.51,32.06,13.37,42.23,1002.04,2030.99,3542.01,3073.09,3534.32,599.74,578.58,1.31,0000 0000 0000 0000 000000
2017-06-30 10:40:50,-0.01,0.03,0.00,27.51,28.67,32.26,13.43,42.27,1002.16,2030.13,3540.68,3071.92,3532.83,600.15,578.89,1.36,0000 0000 0000 0000 000000
2017-06-30 10:45:51,-0.01,0.03,0.00,27.64,28.83,32.43,13.43,42.20,1002.36,2029.35,3539.24,3070.74,3531.36,599.99,578.54,1.41,0000 0000 0000 0000 000000
2017-06-30 10:50:52,0.01,0.03,0.00,27.74,28.99,32.57,13.35,42.13,1002.43,2028.70,3537.83,3069.64,3529.94,599.84,578.15,1.46,0000 0000 0000 0000 000000
2017-06-30 10:55:53,0.02,0.03,0.00,27.85,29.14,32.70,13.35,42.13,1002.46,2027.94,3536.63,3068.51,3528.61,600.16,578.37,1.51,0000 0000 0000 0000 000000
2017-06-30 11:00:54,-0.02,0.03,0.00,27.96,29.29,32.87,13.39,42.09,1002.46,2027.10,3535.53,3067.54,3527.41,599.96,578.01,1.56,0000 0000 0000 0000 000000
2017-06-30 11:05:56,-0.01,0.03,0.00,28.06,29.43,32.99,13.39,42.22,1002.46,2026.49,3534.28,3066.41,3526.03,599.96,577.87,1.61,0000 0000 0000 0000 000000
2017-06-30 11:10:57,0.04,0.03,0.00,28.11,29.58,33.11,13.38,42.07,1002.46,2025.94,3532.94,3065.34,3524.73,599.99,577.66,1.66,0000 0000 0000 0000 000000
2017-06-30 11:15:59,-0.01,0.03,0.00,28.15,29.71,33.06,13.34,42.02,1002.48,2025.14,3531.68,3064.33,3523.53,599.84,577.60,1.71,0000 0000 0000 0000 000000
2017-06-30 11:21:00,0.00,0.03,0.00,28.22,29.84,33.09,13.40,42.06,1002.47,2024.65,3530.50,3063.28,3522.18,600.12,577.67,1.76,0000 0000 0000 0000 000000
2017-06-30 11:26:01,0.02,0.03,0.00,28.29,29.96,33.12,13.36,42.03,1002.50,2024.00,3529.28,3062.12,3520.85,600.21,577.64,1.81,0000 0000 0000 0000 000000
2017-06-30 11:31:02,0.00,0.04,0.00,28.35,30.09,33.17,13.33,42.03,1002.51,2023.34,3527.77,3060.97,3519.57,600.02,577.39,1.86,0000 0000 0000 0000 000000
2017-06-30 11:36:04,0.05,0.04,0.00,28.39,30.21,33.23,13.30,41.96,1002.57,2022.95,3526.16,3059.76,3518.16,600.19,577.41,1.91,0000 0000 0000 0000 000000
2017-06-30 11:41:04,0.00,0.04,0.00,28.42,30.32,33.27,13.38,41.92,1002.56,2022.23,3524.60,3058.53,3516.70,599.76,577.04,1.96,0000 0000 0000 0000 000000
2017-06-30 11:46:06,0.04,0.04,0.00,28.42,30.43,33.27,13.42,41.93,1002.48,2021.89,3523.33,3057.52,3515.52,600.23,577.37,2.01,0000 0000 0000 0000 000000
2017-06-30 11:51:07,-0.01,0.04,0.00,28.42,30.53,33.33,13.37,41.92,1002.48,2021.12,3521.98,3056.51,3514.22,600.15,577.34,2.06,0000 0000 0000 0000 000000
2017-06-30 11:56:08,0.06,0.04,0.00,28.40,30.63,33.41,13.37,41.96,1002.48,2020.91,3520.51,3055.43,3512.80,600.08,577.29,2.11,0000 0000 0000 0000 000000
2017-06-30 12:01:10,-0.01,0.04,0.00,28.38,30.73,33.51,13.34,41.87,1002.46,2020.09,3519.00,3054.19,3511.38,599.88,577.13,2.16,0000 0000 0000 0000 000000
2017-06-30 12:06:11,0.07,0.05,0.00,28.35,30.82,33.56,13.40,42.00,1002.46,2019.93,3517.48,3052.86,3509.84,600.07,577.33,2.21,0000 0000 0000 0000 000000
2017-06-30 12:11:12,-0.03,0.05,0.00,28.32,30.90,33.59,13.40,41.98,1002.46,2019.15,3516.08,3051.92,3508.44,600.02,577.36,2.27,0000 0000 0000 0000 000000
2017-06-30 12:16:14,0.04,0.05,0.00,28.32,30.98,33.64,13.36,42.08,1002.46,2018.98,3515.15,3051.08,3507.61,600.02,577.52,2.32,0000 0000 0000 0000 000000
2017-06-30 12:21:15,-0.01,0.05,0.00,28.31,31.06,33.69,13.42,42.09,1002.45,2018.35,3513.97,3050.16,3506.45,600.23,577.61,2.37,0000 0000 0000 0000 000000
2017-06-30 12:26:17,0.02,0.05,0.00,28.30,31.14,33.73,13.32,42.11,1002.46,2018.01,3513.05,3049.52,3505.78,599.67,577.17,2.42,0000 0000 0000 0000 000000
2017-06-30 12:31:18,0.03,0.05,0.00,28.30,31.21,33.78,13.38,42.02,1002.36,2017.92,3512.10,3048.84,3504.83,600.18,577.70,2.47,0000 0000 0000 0000 000000
2017-06-30 12:36:19,-0.02,0.05,0.00,28.31,31.27,33.83,13.37,42.05,1002.20,2017.22,3510.84,3048.02,3503.94,599.83,577.06,2.52,0000 0000 0000 0000 000000
2017-06-30 12:41:21,0.05,0.05,0.00,28.32,31.33,33.88,13.31,42.01,1002.21,2017.00,3509.55,3047.17,3502.98,599.80,577.09,2.57,0000 0000 0000 0000 000000
2017-06-30 12:46:22,0.03,0.05,0.00,28.34,31.39,33.92,13.41,42.01,1002.24,2016.98,3508.64,3046.66,3502.10,600.20,577.44,2.62,0000 0000 0000 0000 000000
2017-06-30 12:51:23,-0.02,0.05,0.00,28.35,31.44,33.96,13.41,41.99,1002.38,2016.55,3507.72,3046.03,3501.48,600.20,577.30,2.67,0000 0000 0000 0000 000000
2017-06-30 12:56:24,0.03,0.05,0.00,28.37,31.50,34.00,13.39,42.09,1002.28,2016.04,3506.54,3045.29,3500.58,599.83,577.10,2.72,0000 0000 0000 0000 000000
2017-06-30 13:01:25,0.03,0.05,0.00,28.39,31.55,34.03,13.40,42.02,1002.23,2016.00,3505.43,3044.76,3499.88,600.07,577.15,2.77,0000 0000 0000 0000 000000
2017-06-30 13:06:27,0.04,0.06,0.00,28.40,31.60,34.08,13.34,42.08,1001.99,2016.00,3504.12,3044.01,3499.05,599.79,576.74,2.82,0000 0000 0000 0000 000000
2017-06-30 13:11:28,0.04,0.06,0.00,28.42,31.64,34.12,13.41,42.11,1001.97,2015.94,3502.99,3043.27,3498.24,599.87,576.79,2.87,0000 0000 0000 0000 000000
2017-06-30 13:16:29,-0.00,0.06,0.00,28.44,31.69,34.16,13.37,42.11,1001.97,2015.41,3501.70,3042.59,3497.29,600.05,576.92,2.92,0000 0000 0000 0000 000000
2017-06-30 13:21:30,0.02,0.06,0.00,28.46,31.73,34.19,13.41,42.10,1001.97,2015.02,3500.44,3041.96,3496.34,599.99,576.79,2.97,0000 0000 0000 0000 000000
2017-06-30 13:26:31,0.04,0.06,0.00,28.49,31.78,34.21,13.41,42.02,1001.96,2014.99,3499.59,3041.14,3495.83,600.30,577.03,3.02,0000 0000 0000 0000 000000
2017-06-30 13:31:32,0.02,0.06,0.00,28.50,31.82,34.25,13.39,42.02,1001.79,2014.91,3498.59,3040.79,3495.03,600.14,576.74,3.07,0000 0000 0000 0000 000000
2017-06-30 13:36:34,-0.02,0.06,0.00,28.52,31.86,34.28,13.32,42.05,1001.57,2014.38,3497.68,3040.06,3494.24,599.56,576.00,3.12,0000 0000 0000 0000 000000
2017-06-30 13:41:35,0.03,0.06,0.00,28.53,31.89,34.32,13.39,42.03,1001.54,2014.07,3496.75,3039.67,3493.54,600.24,576.58,3.17,0000 0000 0000 0000 000000
2017-06-30 13:46:36,0.03,0.07,0.00,28.55,31.93,34.35,13.46,42.13,1001.74,2014.00,3495.70,3038.90,3492.77,600.27,576.82,3.22,0000 0000 0000 0000 000000
2017-06-30 13:51:38,0.04,0.07,0.00,28.55,31.96,34.38,13.37,42.06,1001.66,2014.00,3494.78,3038.10,3492.01,600.04,576.60,3.27,0000 0000 0000 0000 000000
2017-06-30 13:56:39,0.03,0.07,0.00,28.56,32.00,34.42,13.40,42.13,1001.80,2013.92,3493.87,3037.75,3491.21,599.97,576.45,3.32,0000 0000 0000 0000 000000
2017-06-30 14:01:40,-0.01,0.07,0.00,28.57,32.03,34.43,13.37,42.01,1001.67,2013.57,3493.08,3037.05,3490.81,600.18,576.62,3.37,0000 0000 0000 0000 000000
2017-06-30 14:06:42,-0.00,0.07,0.00,28.59,32.06,34.46,13.37,41.99,1001.57,2013.10,3492.43,3036.89,3490.06,600.07,576.43,3.42,0000 0000 0000 0000 000000
2017-06-30 14:11:43,0.02,0.07,0.00,28.60,32.09,34.50,13.42,42.04,1001.51,2013.00,3491.87,3036.17,3489.75,600.49,576.88,3.47,0000 0000 0000 0000 000000
2017-06-30 14:16:44,0.02,0.07,0.00,28.62,32.11,34.52,13.35,42.00,1001.49,2013.00,3491.08,3036.00,3489.04,599.65,575.90,3.52,0000 0000 0000 0000 000000
2017-06-30 14:21:46,0.03,0.07,0.00,28.62,32.14,34.54,13.39,42.04,1001.48,2013.00,3490.54,3035.72,3488.80,600.00,576.22,3.57,0000 0000 0000 0000 000000
2017-06-30 14:26:47,0.02,0.07,0.00,28.63,32.16,34.57,13.41,41.94,1001.48,2012.99,3489.93,3035.09,3488.11,600.20,576.49,3.62,0000 0000 0000 0000 000000
2017-06-30 14:31:48,0.01,0.08,0.00,28.65,32.19,34.59,13.38,42.02,1001.48,2012.93,3489.10,3034.96,3487.84,600.21,576.45,3.67,0000 0000 0000 0000 000000
2017-06-30 14:36:50,0.00,0.08,0.00,28.65,32.21,34.61,13.42,42.04,1001.47,2012.59,3488.37,3034.24,3487.03,600.19,576.34,3.72,0000 0000 0000 0000 000000
2017-06-30 14:41:51,0.01,0.08,0.00,28.67,32.24,34.63,13.33,42.01,1001.42,2012.15,3487.37,3033.74,3486.26,599.74,575.87,3.77,0000 0000 0000 0000 000000
2017-06-30 14:46:52,0.03,0.08,0.00,28.67,32.26,34.66,13.40,42.01,1001.22,2012.05,3486.39,3033.06,3485.68,600.24,576.09,3.82,0000 0000 0000 0000 000000
2017-06-30 14:51:53,0.02,0.08,0.00,28.68,32.28,34.67,13.37,41.99,1001.03,2012.00,3485.59,3032.92,3485.03,599.94,575.77,3.87,0000 0000 0000 0000 000000
2017-06-30 14:56:54,0.03,0.08,0.00,28.70,32.30,34.71,13.36,42.09,1001.04,2012.00,3485.01,3032.35,3484.67,599.80,575.56,3.92,0000 0000 0000 0000 000000
2017-06-30 15:01:55,0.01,0.08,0.00,28.70,32.32,34.72,13.33,42.07,1001.08,2012.00,3484.50,3032.00,3484.08,600.11,575.96,3.97,0000 0000 0000 0000 000000
2017-06-30 15:06:56,0.00,0.08,0.00,28.70,32.35,34.74,13.39,42.07,1001.02,2011.99,3484.00,3031.98,3483.98,599.96,575.77,4.02,0000 0000 0000 0000 000000
2017-06-30 15:11:58,0.04,0.08,0.00,28.71,32.36,34.75,13.39,42.17,1001.00,2011.97,3483.32,3031.41,3483.32,600.32,576.08,4.07,0000 0000 0000 0000 000000
2017-06-30 15:16:59,0.00,0.08,0.00,28.70,32.39,34.78,13.41,42.13,1000.99,2011.95,3482.99,3031.03,3483.01,600.09,575.91,4.12,0000 0000 0000 0000 000000
2017-06-30 15:22:00,-0.00,0.08,0.00,28.71,32.40,34.80,13.37,42.13,1000.99,2011.78,3482.43,3031.00,3482.92,599.81,575.54,4.17,0000 0000 0000 0000 000000
2017-06-30 15:27:01,0.00,0.08,0.00,28.70,32.42,34.82,13.33,42.09,1000.97,2011.66,3482.01,3030.89,3482.28,600.08,575.84,4.22,0000 0000 0000 0000 000000
2017-06-30 15:32:03,-0.01,0.08,0.00,28.70,32.44,34.84,13.34,42.21,1000.97,2011.29,3481.63,3030.34,3482.00,599.70,575.47,4.27,0000 0000 0000 0000 000000
2017-06-30 15:37:04,-0.00,0.08,0.00,28.70,32.45,34.86,13.38,42.18,1000.89,2011.08,3481.03,3030.02,3481.92,600.39,576.10,4.32,0000 0000 0000 0000 000000
2017-06-30 15:42:05,0.01,0.08,0.00,28.70,32.47,34.86,13.39,42.19,1000.74,2011.01,3480.75,3030.00,3481.24,599.74,575.43,4.37,0000 0000 0000 0000 000000
2017-06-30 15:47:06,0.01,0.09,0.00,28.70,32.49,34.89,13.36,42.15,1000.98,2011.01,3480.05,3029.89,3481.00,600.01,575.76,4.42,0000 0000 0000 0000 000000
2017-06-30 15:52:08,0.01,0.09,0.00,28.70,32.50,34.90,13.43,42.15,1001.12,2011.00,3479.96,3029.51,3480.97,599.99,575.87,4.47,0000 0000 0000 0000 000000
2017-06-30 15:57:08,0.03,0.09,0.00,28.69,32.51,34.91,13.35,42.02,1000.99,2011.00,3479.23,3029.04,3480.32,600.09,575.92,4.52,0000 0000 0000 0000 000000
